Probability
0 0 0 0 0 0 0 0 0 0 0 0 0 0 0 0 0 0 0 0 0 0 0 0 0 0 0 0 0 0 0 0 0 0 0 0 0 0 0 0 0 0 0 0
0 0 0 0 0 0 0 0 0 0 0 0 0 0 0 0 0 0 0 0 0 0 0 0 0 0 0 0 0 0 0 0 0 0 0 0 0 0 0 0 0 0 0 0
0 0 0 0 0 0 0 0 0 0 0 0 0 0 0 0 0 0 0 0 0 0 0 0 0 0 0 0 0 0 0 0 0 0 0 0 0 0 0 0 0 0 0 0
0 0 0 0 0 0 0 0 0 0 0 0 0 0 0 0 0 0 0 0 0 0 0 0 0 0 0 0 0 0 0 0 0 0 0 0 0 0 0 0 0 0 0 0
0 0 0 0 0 0 0 0 0 0 0 0 0 0 0 0 0 0 0 0 0 0 0 0 0 0 0 0 0 0 0 0 0 0 0 0 0 0 0 0 0 0 0 0
0 0 0 0 0 0 0 0 0 0 0 0 0 0 0 0 0 0 0 0 0 0 0 0 0 0 0 0 0 0 0 0 0 0 0 0 0 0 0 0 0 0 0 0
0 0 0 0 0 0 0 0 0 0 0 0 0 0 0 0 0 0 0 0 0 0 0 0 0 0 0 0 0 0 0 0 0 0 0 0 0 0 0 0 0 0 0 0
0 0 0 0 0 0 0 0 0 0 0 0 0 0 0 0 0 0 0 0 0 0 0 0 0 0 0 0 0 0 0 0 0 0 0 0 0 0 0 0 0 0 0 0
0 0 0 0 0 0 0 0 0 0 0 0 0 0 0 0 0 0 0 0 0 0 0 0 0 0 0 0 0 0 0 0 0 0 0 0 0 0 0 0 0 0 0 0
0 0 0 0 0 0 0 0 0 0 0 0 0 0 0 0 0 0 0 0 0 0 0 0 0 0 0 0 0 0 0 0 0 0 0 0 0 0 0 0 0 0 0 0
0 0 0 0 0 0 0 0 0 0 0 0 0 0 0 0 0 0 0 0 0 0 0 0 0 0 0 0 0 0 0 0 0 0 0 0 0 0 0 0 0 0 0 0
0 0 0 0 0 0 0 0 0 0 0 0 0 0 0 0 0 0 0 0 0 0 0 0 0 0 0 0 0 0 0 0 0 0 0 0 0 0 0 0 0 0 0 0
0 0 0 0 0 0 0 0 0 0 0 0 0 0 0 0 0 0 0 0 0 0 0 0 0 0 0 0 0 0 0 0 0 0 0 0 0 0 0 0 0 0 0 0
0 0 0 0 0 0 0 0 0 0 0 0 0 0 0 0 0 0 0 0 0 0 0 0 0 0 0 0 0 0 0 0 0 0 0 0 0 0 0 0 0 0 0 0
0 0 0 0 0 0 0 0 0 0 0 0 0 0 0 0 0 0 0 0 0 0 0 0 0 0 0 0 0 0 0 0 0 0 0 0 0 0 0 0 0 0 0 0
0 0 0 0 0 0 0 0 0 0 0 0 0 0 0 0 0 0 0 0 0 0 0 0 0 0 0 0 0 0 0 0 0 0 0 0 0 0 0 0 0 0 0 0
0 0 0 0 0 0 0 0 0 0 0 0 0 0 0 0 0 0 0 0 0 0 0 0 0 0 0 0 0 0 0 0 0 0 0 0 0 0 0 0 0 0 0 0
0 0 0 0 0 0 0 0 0 0 0 0 0 0 0 0 0 0 0 0 0 0 0 0 0 0 0 0 0 0 0 0 0 0 0 0 0 0 0 0 0 0 0 0
0 0 0 0 0 0 0 0 0 0 0 0 0 0 0 0 0 0 0 0 0 0 0 0 0 0 0 0 0 0 0 0 0 0 0 0 0 0 0 0 0 0 0 0
0 0 0 0 0 0 0 0 0 0 0 0 0 0 0 0 0 0 0 0 0 0 0 0 0 0 0 0 0 0 0 0 0 0 0 0 0 0 0 0 0 0 0 0
0 0 0 0 0 0 0 0 0 0 0 0 0 0 0 0 0 0 0 0 0 0 0 0 0 0 0 0 0 0 0 0 0 0 0 0 0 0 0 0 0 0 0 0
0 0 0 0 0 0 0 0 0 0 0 0 0 0 0 0 0 0 0 0 0 0 0 0 0 0 0 0 0 0 0 0 0 0 0 0 0 0 0 0 0 0 0 0
0 0 0 0 0 0 0 0 0 0 0 0 0 0 0 0 0 0 0 0 0 0 0 0 0 0 0 0 0 0 0 0 0 0 0 0 0 0 0 0 0 0 0 0
0 0 0 0 0 0 0 0 0 0 0 0 0 0 0 0 0 0 0 0 0 0 0 0 0 0 0 0 0 0 0 0 0 0 0 0 0 0 0 0 0 0 0 0
0 0 0 0 0 0 0 0 0 0 0 0 0 0 0 0 0 0 0 0 0 0 0 0 0 0 0 0 0 0 0 0 0 0 0 0 0 0 0 0 0 0 0 0
0 0 0 0 0 0 0 0 0 0 0 0 0 0 0 0 0 0 0 0 0 0 0 0 0 0 0 0 0 0 0 0 0 0 0 0 0 0 0 0 0 0 0 0
0 0 0 0 0 0 0 0 0 0 0 0 0 0 0 0 0 0 0 0 0 0 0 0 0 0 0 0 0 0 0 0 0 0 0 0 0 0 0 0 0 0 0 0
Wind_Speed
2 1 0 1 2 3 5 7 8 7 6 4 1 1 3 4 6 8 10 10 10 9 8 7 6 4 3 4 4 4 5 6 7 6 5 5 6 6 5 5 6 5 4 4
1 1 1 2 4 3 4 4 4 3 3 2 2 2 4 5 7 8 8 9 9 9 10 9 8 6 4 4 3 4 5 7 6 5 5 6 6 6 5 6 5 5 5 5
2 3 2 5 4 4 3 2 5 6 6 4 3 4 3 3 5 6 6 7 8 8 8 8 8 7 5 4 2 3 5 5 5 5 6 7 6 6 7 7 6 6 6 6
1 1 4 6 2 3 4 1 0 2 4 6 5 4 3 2 3 4 5 6 7 7 7 7 8 7 6 4 1 2 3 4 4 5 6 6 5 7 7 6 6 6 7 7
3 1 5 5 1 3 3 0 0 3 4 4 4 3 3 3 2 2 3 3 4 5 5 6 8 8 7 6 4 3 4 5 5 5 6 6 7 8 7 6 6 6 5 7
4 3 6 6 1 1 4 2 2 4 5 4 4 2 2 2 2 2 3 3 4 5 5 7 7 7 7 7 7 6 6 7 6 5 6 7 8 8 6 6 7 7 6 7
4 4 8 5 2 3 4 6 3 4 4 5 4 4 3 1 0 1 2 3 4 4 5 6 6 6 7 7 7 8 8 7 6 5 6 7 7 6 5 6 6 6 7 6
5 4 8 2 3 5 5 1 3 4 4 4 3 2 2 1 0 2 3 3 4 4 5 6 6 5 6 7 7 7 7 7 7 6 6 5 5 5 5 6 6 6 6 6
8 7 3 1 2 2 4 4 3 4 3 4 3 2 2 1 0 1 2 3 3 3 4 5 6 5 6 7 8 8 8 8 8 7 5 5 4 5 4 5 6 6 6 7
3 5 3 2 1 1 3 3 3 4 4 4 3 3 2 1 1 1 2 3 3 3 4 6 6 6 6 7 7 7 7 8 8 7 7 5 4 4 4 5 6 7 7 8
4 5 3 3 3 3 2 2 2 3 3 4 4 3 3 2 2 2 2 3 2 3 4 6 6 6 7 7 6 6 7 7 7 6 6 6 5 5 6 7 8 8 8 8
8 8 6 6 5 4 4 5 5 5 4 3 4 5 4 3 3 3 3 3 3 4 5 6 6 7 7 7 6 6 6 6 6 6 6 5 6 6 7 9 11 13 12 9
6 4 5 5 4 5 6 6 6 6 6 5 4 4 4 3 3 3 3 4 4 5 6 6 6 7 7 7 6 6 6 7 5 6 6 6 6 6 8 7 8 10 11 12
6 3 4 5 6 6 6 6 5 5 5 5 5 4 3 3 3 4 5 5 5 5 6 6 7 8 8 7 6 7 6 8 8 6 6 6 6 6 6 6 7 6 7 11
8 8 8 6 5 5 4 4 4 5 5 4 4 4 4 5 5 6 6 5 5 5 7 7 8 9 8 7 7 7 7 5 6 6 6 6 6 6 6 7 7 6 4 5
6 5 5 6 7 6 5 6 6 7 6 5 5 6 6 6 6 6 6 5 5 7 8 8 9 9 8 7 7 7 6 12 11 6 6 6 6 6 6 6 6 6 6 5
6 6 6 6 7 7 8 8 9 8 7 6 7 6 5 5 5 6 7 7 7 8 8 8 10 10 8 8 7 6 6 8 14 9 6 7 7 7 6 6 7 7 7 6
11 11 9 8 8 8 8 8 7 7 7 7 6 5 5 5 7 8 8 7 7 8 9 9 10 9 9 8 7 6 6 6 6 7 7 7 7 7 7 7 8 9 7 6
8 8 8 8 8 7 7 7 7 7 6 5 5 6 6 7 7 8 7 7 7 9 10 9 14 11 8 10 12 6 7 8 7 7 7 10 9 7 7 8 8 8 7 6
4 5 5 5 5 5 6 5 5 4 4 4 5 5 6 7 7 8 7 8 8 9 9 10 10 9 9 10 14 6 7 8 9 8 8 7 8 9 8 8 8 8 8 8
3 3 4 4 4 4 5 5 5 5 5 5 5 7 8 8 7 7 6 8 9 9 10 15 10 7 8 10 13 7 7 8 9 9 8 8 8 9 9 9 9 8 8 8
3 3 4 4 4 4 4 4 5 5 5 5 6 7 7 8 8 8 8 9 10 13 9 7 7 11 14 16 7 7 8 9 9 8 8 9 9 9 9 9 9 9 8 8
3 3 4 4 4 4 4 4 5 5 6 7 7 8 8 8 6 6 8 8 7 13 10 7 13 20 22 12 7 8 9 9 9 10 9 9 9 9 10 10 10 9 8 8
3 4 4 3 3 3 5 6 6 5 6 7 7 8 8 7 7 7 8 12 15 16 9 11 19 22 21 9 7 8 8 9 10 10 10 10 10 10 10 10 9 9 8 9
5 5 4 4 5 5 7 7 6 6 6 6 8 9 7 6 7 8 7 9 14 16 10 13 21 22 13 8 8 9 9 10 11 10 10 10 10 10 10 9 9 9 8 7
5 5 6 6 6 5 5 4 5 5 5 6 6 6 6 6 7 8 7 9 12 15 11 9 9 12 9 9 10 10 10 11 12 11 10 10 11 11 10 9 11 8 7 7
6 5 4 4 5 5 5 5 6 6 6 6 7 7 7 6 6 7 8 8 8 8 8 8 8 8 9 9 10 10 10 9 10 10 10 10 9 9 9 10 8 6 6 6
Wind_Direction
211 241 198 239 238 184 183 184 183 213 203 235 242 45 22 17 23 30 24 19 14 7 359 352 342 317 275 257 234 212 202 212 224 224 219 220 221 220 215 212 216 215 215 221
347 12 334 272 265 230 210 192 190 171 217 189 130 90 51 35 37 33 20 11 6 4 3 357 346 327 302 273 244 211 213 223 227 222 218 220 224 219 214 217 218 211 213 215
259 312 350 279 249 197 187 191 170 191 204 157 124 94 70 44 41 33 15 6 3 360 355 349 342 332 318 290 255 215 228 237 231 222 225 227 225 216 217 218 212 213 217 212
146 46 236 246 306 149 131 69 193 166 149 156 150 136 96 63 53 31 11 4 358 353 352 348 350 349 343 349 345 265 256 257 247 231 234 233 223 223 223 214 209 214 217 215
122 186 283 294 196 152 140 194 201 145 146 150 147 97 27 19 32 28 5 354 344 343 344 354 2 360 6 9 0 343 308 283 267 246 241 233 226 229 223 212 214 213 211 209
130 168 240 250 254 174 111 270 224 158 161 161 130 117 260 317 356 9 7 359 352 349 0 8 358 1 17 11 3 341 315 298 278 254 243 238 235 232 221 212 218 214 217 211
158 210 260 257 276 115 155 241 186 160 160 151 166 190 208 257 334 10 7 358 359 5 6 353 346 1 9 2 349 328 317 312 304 273 251 245 242 235 222 214 215 215 220 220
154 192 251 264 119 167 206 174 136 144 152 153 171 180 183 178 5 8 4 357 359 3 352 340 343 358 358 344 326 327 329 323 317 304 280 266 245 241 223 209 212 218 220 228
188 208 244 259 203 207 154 146 162 164 172 157 163 184 190 195 309 336 341 340 343 345 338 336 339 347 339 323 325 330 335 332 321 318 304 284 255 242 232 214 215 221 217 226
242 257 246 252 233 189 164 166 179 176 173 168 180 193 198 218 265 297 310 316 324 336 337 329 327 328 317 314 322 329 330 328 326 322 319 307 281 252 236 226 225 224 221 226
249 265 278 264 225 205 196 175 174 183 187 189 184 199 204 218 245 263 282 292 301 308 308 307 314 317 314 316 325 327 323 322 324 318 312 310 293 265 252 242 231 227 228 220
221 217 199 229 223 203 199 208 203 196 208 209 194 203 208 219 234 246 264 279 292 296 296 298 304 306 307 309 315 319 320 319 317 314 310 307 304 300 273 263 263 249 241 228
219 216 206 233 228 210 208 214 212 206 204 210 213 207 206 221 235 244 260 270 274 280 284 289 294 294 295 298 303 304 302 305 305 308 306 306 302 299 301 299 274 260 250 238
231 212 232 227 227 220 216 219 216 212 211 206 209 212 214 226 243 251 258 261 266 275 281 283 285 286 286 289 294 294 292 299 303 295 295 294 290 286 284 287 292 284 260 243
231 214 221 233 234 229 216 198 195 210 216 220 215 217 221 229 241 250 257 264 272 278 281 283 283 284 286 285 288 287 287 285 285 283 286 285 284 282 280 277 275 278 278 261
231 226 221 221 226 225 211 202 206 218 218 219 223 229 230 230 239 252 262 264 265 271 276 280 280 280 284 283 282 284 279 288 297 288 287 288 284 281 280 278 274 268 260 252
216 233 228 227 226 222 213 211 213 217 217 220 227 232 238 244 256 263 266 263 258 262 267 271 274 279 282 280 276 278 276 282 291 292 281 282 279 275 275 274 272 266 259 243
219 222 221 219 221 222 222 219 216 214 217 223 225 229 236 241 249 259 266 272 276 277 271 266 269 276 275 276 274 272 272 270 268 272 275 276 277 271 269 270 272 269 265 250
229 227 228 225 220 214 216 218 216 216 219 219 223 233 239 245 249 258 267 271 274 278 276 268 282 287 278 277 285 269 267 270 270 269 269 276 280 274 267 267 270 271 261 246
229 225 221 221 216 207 210 211 207 213 223 222 232 245 254 258 259 262 265 263 258 257 265 276 281 274 272 274 285 272 266 269 270 271 269 268 271 274 270 266 266 268 261 247
226 220 213 212 215 212 207 200 197 215 227 223 228 242 253 261 263 262 263 272 271 263 266 279 280 272 273 276 285 271 266 267 269 269 268 267 269 273 271 267 264 266 263 252
217 210 210 203 204 222 223 209 208 220 232 241 245 250 257 263 266 264 254 253 265 273 273 266 266 275 282 287 274 266 265 266 267 267 265 264 265 269 268 265 262 262 262 251
216 214 215 214 218 228 237 233 227 227 236 243 246 249 251 253 253 255 269 263 258 272 276 265 272 283 290 289 272 268 268 268 268 268 267 266 264 265 267 265 261 258 257 250
223 224 231 233 221 230 246 250 244 240 242 248 249 249 250 258 263 251 250 270 278 281 275 270 278 285 292 283 271 270 270 270 270 270 268 268 266 266 266 264 261 255 251 247
227 227 229 226 225 234 241 250 257 258 256 256 258 258 253 242 247 262 265 266 274 282 279 281 286 290 288 277 273 273 272 269 270 271 266 266 266 266 265 261 258 252 246 242
230 231 231 227 228 233 234 235 241 249 251 259 265 262 260 257 254 261 267 268 268 278 278 274 276 281 277 274 274 274 273 277 279 276 270 268 266 264 262 261 256 246 239 237
242 242 241 245 246 236 231 231 238 247 247 247 258 264 265 266 267 268 269 271 273 273 273 274 274 273 273 273 275 276 275 274 274 273 271 268 265 261 259 257 251 241 232 227